Other Public Products
Issued by NWS Grand Forks, ND

Home | Current Version | Previous Version | Graphics & Text | Print | Product List | Glossary On
Versions: 1 2 3 4 5 6 7 8 9 10 11 12 13 14 15 16 17 18 19 20 21 22 23 24 25 26 27 28 29 30 31 32 33 34 35 36 37 38 39 40 41 42 43 44 45 46 47 48 49 50
000
FPUS83 KFGF 250331
OPUFGF
PRAIRIE TO PINES WEATHER ROUNDUP
NATIONAL WEATHER SERVICE EASTERN NORTH DAKOTA/GRAND FORKS ND
1000 PM CDT SAT SEP 24 2016

 **SATELLITE DATA USED TO AUGMENT SKY COVER AT AUTOMATED STATIONS**
 *****  WEATHER ACROSS EASTERN NORTH DAKOTA  *****

CITY           SKY/WX    TMP DP  RH WIND       PRES   REMARKS
GRAND FORKS    CLOUDY    68  65  90 SE14      29.74F
GRAND FORKS AF CLOUDY    68  66  94 SE13      29.74S
GRAND CITY NWS NOT AVBL
BUXTON           N/A     71  71  99 SE14        N/A
DEVILS LAKE    CLOUDY    66  65  96 SE8       29.74S FOG
FARGO          CLOUDY    70  67  90 S15G25    29.79S
WAHPETON ARPT  CLOUDY    66  63  88 S15       29.83S
$$

 *****  WEATHER ACROSS CENTRAL AND WESTERN NORTH DAKOTA  *****

CITY           SKY/WX    TMP DP  RH WIND       PRES   REMARKS
JAMESTOWN      CLEAR     64  53  67 S10       29.76S
BISMARCK       CLEAR     60  49  66 SW9       29.76R
MINOT          CLOUDY    59  58  96 NW9       29.74R
MINOT AFB      CLOUDY    57  55  94 NW17      29.74R
GARRISON         N/A     57  51  80 CALM      29.73R
WILLISTON      LGT RAIN  52  48  86 N28G37    29.86R
DICKINSON      CLOUDY    52  50  93 NW25G37   29.78R
HETTINGER      CLOUDY    55  51  86 NW26G35   29.77R
$$

 *****  OTHER OBSERVATIONS NORTHEAST NORTH DAKOTA  *****

CITY           SKY/WX    TMP DP  RH WIND       PRES   REMARKS
WALHALLA       FAIR      66  64  94 SE14G22   29.73F
LANGDON        CLOUDY    68  68 100 SE15      29.74F
CAVALIER       LGT RAIN  68  64  88 S10G20    29.73F
GRAFTON        CLOUDY    66  66 100 SE14G21   29.75F
CANDO          FAIR      64  64 100 S8        29.75S
FORT TOTTEN      N/A     67  65  94 S7        29.95S
ROLLA          FAIR      64  64 100 S8        29.73S
RUGBY          FAIR      63  57  82 SW9       29.72S
 ***** THE ABOVE OBSERVATIONS ARE NON NWS ARE NOT QUALITY
        CONTROLLED AND MAY MIS-REPORT RAIN FOR SNOW...
$$

 *****  OTHER OBSERVATIONS SOUTHEAST NORTH DAKOTA *****

CITY           SKY/WX    TMP DP  RH WIND       PRES   REMARKS
COOPERSTOWN    FAIR      68  66  94 S12       29.76F
VALLEY CITY    FAIR      68  68 100 S10G17    29.79F
OAKES          NOT AVBL
GWINNER        FAIR      66  64  94 S8        29.81S
SHEYENNE NWR     N/A     69  67  93 S13       29.95S
BUFFALO          N/A     69  66  89 S12         N/A
WYNDMERE         N/A     70  68  94 S10         N/A
 ***** THE ABOVE OBSERVATIONS ARE NON NWS ARE NOT QUALITY
       CONTROLLED AND MAY MIS-REPORT RAIN FOR SNOW...
$$

  *****  WEATHER ACROSS NORTHERN MINNESOTA  *****

CITY           SKY/WX    TMP DP  RH WIND       PRES   REMARKS
FLAG ISLAND    CLOUDY    63  61  94 SE9       29.88S
WARROAD        CLOUDY    64  61  88 SE14G20   29.87F
ROSEAU         CLOUDY    64  61  88 SE15G21   29.84F
HALLOCK        CLOUDY    68  64  88 S15G22    29.74F
THF RVR FALLS  CLOUDY    65  63  93 SE16      29.80F
HALSTAD          N/A     67  66  96 S14         N/A
FOSSTON        CLOUDY    64  63  94 SE9G17    29.83F
BAUDETTE       HVY RAIN  62  61  96 SE15G22   29.89F FOG
WASKISH        CLOUDY    64  61  88 SE9       29.90F
CROOKSTON      CLOUDY    64  64 100 S16       29.78F
$$
  *****  WEATHER ACROSS CENTRAL AND WEST MINNESOTA  *****

CITY           SKY/WX    TMP DP  RH WIND       PRES   REMARKS
BEMIDJI        CLOUDY    64  62  91 SE14      29.87F
PARK RAPIDS    CLOUDY    66  62  87 SE13      29.88F
WADENA         CLOUDY    64  63  94 SE12      29.89S
DETROIT LAKES  CLOUDY    66  64  94 S10       29.86R
MOORHEAD       CLOUDY    70  66  88 S14G20    29.81S
FERGUS FALLS   CLOUDY    66  66 100 S12       29.87R
ELBOW LAKE     CLOUDY    66  65  97 SE15      29.87S
MORRIS MN      CLOUDY    66  64  94 SE10G17   29.87F
STAPLES        MOCLDY    64  63  94 SE10G16   29.91R
WHEATON        MOCLDY    68  66  94 S10G18    29.87S
$$
  *****  WEATHER ELSEWHERE ACROSS MINNESOTA  *****

CITY           SKY/WX    TMP DP  RH WIND       PRES   REMARKS
DULUTH         CLOUDY    62  59  90 SE15      30.04F
INTRNTL FALLS  CLOUDY    62  58  86 SE12      29.97F
ELY            CLOUDY    61  55  82 E8        30.02F
CLOQUET        CLOUDY    61  57  88 E9        30.01F
BRAINERD       CLOUDY    64  63  96 SE13      29.94F FOG
HIBBING        CLOUDY    61  59  93 SE13      30.00F
ALEXANDRIA     CLOUDY    67  66  97 SE15      29.91F
SAINT CLOUD    CLOUDY    66  65  96 SE9       29.95R
MINNEAPOLIS    CLOUDY    68  62  81 SE16      29.98F
$$

  *****  WEATHER ACROSS SOUTH DAKOTA  *****

CITY           SKY/WX    TMP DP  RH WIND       PRES   REMARKS
SIOUX FALLS    CLOUDY    71  68  90 S7        29.91S
BROOKINGS      MOCLDY    68  66  93 MISG        N/A
WATERTOWN      CLOUDY    67  65  93 S9        29.87F
HURON          CLEAR     61  53  75 S8        29.87R
SISSETON         N/A     69  67  93 S12       29.83F
ABERDEEN       CLEAR     61  46  57 S7        29.82S
MITCHELL       CLEAR     67  55  65 S7        29.89F
PIERRE         CLEAR     56  41  57 W14       29.92R
MOBRIDGE       CLEAR     56  45  66 SW8       29.82R
RAPID CITY     LGT RAIN  50  41  71 W13       30.02R
$$

  *****  SOME WEATHER IN NEARBY STATES *****

CITY           SKY/WX    TMP DP  RH WIND       PRES   REMARKS
GLASGOW MT     MOCLDY    53  46  77 NW20      30.07R
GREAT FALLS MT CLOUDY    49  40  71 N7        30.27R
CHEYENNE WY    CLOUDY    46  36  68 NW12G25   30.26R
SCOTTSBLUFF NE CLEAR     51  41  68 NW9       30.18R
OMAHA NE       CLOUDY    71  67  87 S12       29.93F
DES MOINES IA  TSTM      70  68  93 SW14      30.01F FOG
DAVENPORT IA   CLEAR     72  66  81 E9        30.05F
CHICAGO IL     CLEAR     68  63  84 NE5       30.13S
EAU CLAIRE WI  CLOUDY    65  60  84 SE8       30.07F
LA CROSSE WI     N/A     67  63  87 SE6       30.06F
$$

  *****  SOME NATIONAL WEATHER *****

CITY           SKY/WX    TMP DP  RH WIND       PRES   REMARKS
LA GUARDIA NY  CLEAR     65  43  44 N7        30.14S
RALEIGH NC     PTCLDY    74  69  85 S3        30.05S
ATLANTA GA     PTCLDY    80  66  62 CALM      30.06S
NEW ORLEANS LA CLEAR     80  75  84 CALM      30.00S
OKLAHOMA CITY  CLOUDY    72  67  84 NE6       29.98R
ALBUQUERQUE NM CLEAR     63  32  31 N16       30.15R
SALT LAKE CITY CLEAR     56  44  64 SE3       30.34R
LOS ANGELES CA CLEAR     73  50  44 W6        29.95S
BOISE ID       CLEAR     60  32  34 NW3       30.31R
SEATTLE WA     CLOUDY    63  46  54 CALM      30.35S
$$

*** WEATHER ACROSS MANITOBA...SASKATCHEWAN AND ONTARIO ***
                ***ONTARIO***

CITY           SKY/WX    TMP DP  RH WIND       PRES   REMARKS
GERALDTON      MOCLDY    54  48  82 S3        30.21S
THUNDER BAY    PTCLDY    59  55  88 E9        30.15F
SIOUX LOOKOUT  CLOUDY    59  52  77 SE9       30.01F
TORONTO        CLEAR     54  41  62 N10       30.24S
BIG TROUT LK   CLEAR     54  41  62 SE10G20   30.07F
PICKLE LAKE    NOT AVBL
DRYDEN         CLOUDY    63  57  82 SE15G21   29.97F
KENORA         CLOUDY    63  61  94 S15G22    29.91F
$$
                *** MANITOBA***

CITY           SKY/WX    TMP DP  RH WIND       PRES   REMARKS
BRANDON        MOCLDY    66  64  94 SE8       29.67F FOG
DAUPHIN        CLOUDY    55  55 100 NW14      29.73F
ISLAND LAKE    CLOUDY    59  54  82 SE16G25   29.89F
PILOT MOUND      N/A     68  64  88 S16         N/A
THE PAS        LGT RAIN  52  50  93 NW7       29.81F FOG
THOMPSON       RAIN      50  48  93 E3        29.84F
WINNIPEG       CLOUDY    66  63  88 SE16      29.75F
LYNN LAKE      LGT RAIN  46  46 100 S2        29.81F
CHURCHILL      CLOUDY    52  41  66 SE14      30.01F
GILLAM         LGT RAIN  52  48  87 E6        29.93F
$$
                ***SASKATCHEWAN***

CITY           SKY/WX    TMP DP  RH WIND       PRES   REMARKS
ESTEVAN        CLOUDY    54  52  94 NW21G26   29.83R
KINDERSLEY     CLEAR     43  36  75 NW7       30.10R
LLOYDMINSTER   CLEAR     43  34  70 W7        30.07R
PRINCE ALBERT  MOCLDY    46  46 100 W7        29.94R
REGINA         LGT RAIN  50  48  93 NW18G24   29.95R
YORKTON        CLOUDY    52  50  93 NW13      29.85R  C1F1C2F2C3F3C4F4C5F5C6F6C7F7C8F8C9F9CaFaCbFbCcFcCdFdCe!



USA.gov is the U.S. government's official web portal to all federal, state and local government web resources and services.